User: anonymous   Login
Location: Ostrava
(49.8330°N, 18.2830°E)
Time: 00:46:21
(UTC+01:00)
Language:

Lacrosse 5 - Orbit

View from above orbital plane
View from above orbital plane
View from above satellite
View from above satellite

Ground track
Ground track

The orbit data is extracted from the following two-line orbital elements,

1 28646U 05016A   14350.80940608 0.00000250  00000-0  59431-4 0    02
2 28646  57.0090 295.0913 0006602 182.8666 177.1333 14.53560192    00
Epoch (UTC): 16 December 2014 19:25:32
Eccentricity: 0.0006602
inclination: 57.0090°
perigee height: 709 km
apogee height: 719 km
right ascension of ascending node: 295.0913°
argument of perigee: 182.8666°
revolutions per day: 14.53560192
mean anomaly at epoch: 177.1333°
orbit number at epoch: 0

The dashed part of the orbit path shows where the satellite is in the earth's shadow,  

DLR